�������l�o���
Date,Time,MP-1(��Sv/h),MP-2(��Sv/h),MP-3(��Sv/h),MP-4(��Sv/h),MP-5(��Sv/h),MP-6(��Sv/h),MP-7(��Sv/h),MP-8(��Sv/h),����,����(m/s),���J
2015/02/16,00:00,1.942,3.580,3.832,3.478,3.700,1.118,1.840,2.115,���k��,14.3,��
2015/02/16,00:10,1.942,3.582,3.830,3.478,3.702,1.120,1.840,2.115,���k��,9.9,��
2015/02/16,00:20,1.942,3.580,3.835,3.473,3.697,1.118,1.838,2.113,���k��,18.2,��
2015/02/16,00:30,1.940,3.580,3.832,3.473,3.700,1.118,1.840,2.115,���k��,9.9,��
2015/02/16,00:40,1.938,3.577,3.838,3.475,3.695,1.120,1.838,2.113,��,13.0,��
2015/02/16,00:50,1.942,3.580,3.835,3.473,3.697,1.118,1.838,2.115,���k��,14.6,��
2015/02/16,01:00,1.943,3.583,3.830,3.473,3.698,1.118,1.837,2.113,���k��,15.8,��
2015/02/16,01:10,1.942,3.578,3.832,3.473,3.698,1.120,1.840,2.113,���k��,11.6,��
2015/02/16,01:20,1.945,3.577,3.833,3.478,3.697,1.118,1.838,2.115,���k��,14.5,��
2015/02/16,01:30,1.942,3.580,3.835,3.475,3.695,1.118,1.840,2.115,���k��,14.6,��
2015/02/16,01:40,1.942,3.582,3.832,3.472,3.695,1.117,1.838,2.115,���k��,15.2,��
2015/02/16,01:50,1.942,3.577,3.840,3.473,3.695,1.117,1.840,2.117,�k��,14.1,��
2015/02/16,02:00,1.947,3.577,3.837,3.472,3.695,1.117,1.838,2.113,���k��,14.1,��
2015/02/16,02:10,1.947,3.578,3.835,3.475,3.695,1.120,1.838,2.113,���k��,12.7,��
2015/02/16,02:20,1.945,3.582,3.837,3.478,3.693,1.118,1.840,2.113,�k��,11.3,��
2015/02/16,02:30,1.945,3.582,3.838,3.473,3.693,1.122,1.842,2.113,���k��,10.2,��
2015/02/16,02:40,1.942,3.575,3.832,3.475,3.692,1.122,1.840,2.112,�k��,11.2,��
2015/02/16,02:50,1.938,3.578,3.833,3.477,3.697,1.118,1.840,2.113,���k��,12.4,��
2015/02/16,03:00,1.943,3.577,3.833,3.478,3.695,1.118,1.840,2.113,�k��,12.1,��
2015/02/16,03:10,1.942,3.578,3.837,3.475,3.698,1.120,1.842,2.115,�k��,13.2,��
2015/02/16,03:20,1.943,3.580,3.835,3.473,3.692,1.117,1.840,2.112,�k��,15.6,��
2015/02/16,03:30,1.942,3.577,3.830,3.473,3.693,1.117,1.838,2.115,���k��,13.2,��
2015/02/16,03:40,1.945,3.577,3.833,3.477,3.700,1.117,1.842,2.113,�k��,15.2,��
2015/02/16,03:50,1.943,3.580,3.833,3.477,3.693,1.117,1.837,2.115,�k��,13.5,��
2015/02/16,04:00,1.943,3.578,3.838,3.482,3.697,1.120,1.840,2.113,�k��,13.8,��
2015/02/16,04:10,1.947,3.575,3.837,3.477,3.693,1.120,1.842,2.113,�k��,11.6,��
2015/02/16,04:20,1.945,3.580,3.838,3.478,3.697,1.120,1.840,2.113,�k��,12.1,��
2015/02/16,04:30,1.943,3.580,3.837,3.478,3.692,1.118,1.840,2.113,�k��,11.6,��
2015/02/16,04:40,1.945,3.582,3.837,3.480,3.697,1.118,1.840,2.113,�k��,10.4,��
2015/02/16,04:50,1.943,3.578,3.838,3.482,3.695,1.118,1.842,2.110,�k��,8.8,��
2015/02/16,05:00,1.942,3.580,3.837,3.482,3.697,1.118,1.840,2.113,�k��,10.2,��
2015/02/16,05:10,1.942,3.580,3.837,3.475,3.697,1.118,1.840,2.110,�k��,9.9,��
2015/02/16,05:20,1.943,3.580,3.835,3.475,3.693,1.115,1.840,2.110,�k��,9.9,��
2015/02/16,05:30,1.943,3.578,3.838,3.480,3.695,1.115,1.840,2.112,�k��,11.6,��
2015/02/16,05:40,1.943,3.577,3.837,3.477,3.697,1.117,1.842,2.112,�k��,10.2,��
2015/02/16,05:50,1.942,3.585,3.837,3.472,3.692,1.117,1.838,2.108,�k��,11.6,��
2015/02/16,06:00,1.945,3.580,3.838,3.477,3.695,1.113,1.838,2.113,�k��,11.0,��
2015/02/16,06:10,1.942,3.582,3.840,3.480,3.698,1.112,1.840,2.113,�k��,8.9,��
2015/02/16,06:20,1.943,3.582,3.840,3.478,3.692,1.108,1.838,2.112,�k��,7.4,��
2015/02/16,06:30,1.947,3.580,3.840,3.478,3.690,1.107,1.840,2.107,�k��,5.2,��
2015/02/16,06:40,1.948,3.582,3.832,3.477,3.685,1.103,1.840,2.112,�k��,4.5,��
2015/02/16,06:50,1.943,3.578,3.833,3.477,3.685,1.103,1.840,2.110,�k��,2.9,��
2015/02/16,07:00,1.942,3.577,3.832,3.473,3.682,1.105,1.838,2.108,�k��,3.9,��
2015/02/16,07:10,1.938,3.575,3.832,3.477,3.688,1.100,1.837,2.108,�k��,4.3,��
2015/02/16,07:20,1.943,3.578,3.832,3.480,3.685,1.098,1.838,2.108,���k��,5.3,��
2015/02/16,07:30,1.943,3.578,3.837,3.477,3.687,1.095,1.835,2.107,�k��,5.8,��
2015/02/16,07:40,1.945,3.577,3.838,3.480,3.688,1.093,1.840,2.110,�k��,5.7,��
2015/02/16,07:50,1.945,3.580,3.837,3.480,3.695,1.093,1.837,2.113,�k��,5.5,��
2015/02/16,08:00,1.947,3.582,3.838,3.478,3.692,1.093,1.840,2.112,�k��,5.4,��
2015/02/16,08:10,1.947,3.577,3.838,3.478,3.690,1.093,1.840,2.110,�k��,3.6,��
2015/02/16,08:20,1.947,3.582,3.840,3.478,3.690,1.095,1.842,2.110,�k��,5.3,��
2015/02/16,08:30,1.947,3.583,3.838,3.480,3.693,1.093,1.842,2.110,�k��,7.1,��
2015/02/16,08:40,1.945,3.585,3.840,3.478,3.693,1.090,1.840,2.112,�k��,5.8,��
2015/02/16,08:50,1.947,3.583,3.843,3.480,3.693,1.090,1.842,2.112,���k��,8.5,��
2015/02/16,09:00,1.947,3.583,3.842,3.480,3.702,1.088,1.842,2.110,�k��,9.1,��
2015/02/16,09:10,1.948,3.583,3.847,3.482,3.702,1.090,1.842,2.112,�k��,8.2,��
2015/02/16,09:20,1.947,3.587,3.843,3.480,3.702,1.092,1.845,2.112,�k��,10.2,��
2015/02/16,09:30,1.948,3.562,3.848,3.480,3.702,1.090,1.843,2.113,�k��,9.9,��
2015/02/16,09:40,1.953,3.572,3.845,3.482,3.700,1.088,1.840,2.107,�k��,12.1,��
2015/02/16,09:50,1.950,3.588,3.848,3.487,3.702,1.092,1.843,2.107,�k��,9.9,��
2015/02/16,10:00,1.952,3.590,3.843,3.485,3.703,1.093,1.842,2.110,�k��,11.6,��
2015/02/16,10:10,1.948,3.592,3.848,3.488,3.707,1.093,1.843,2.112,�k��,8.5,��
2015/02/16,10:20,1.953,3.593,3.850,3.487,3.710,1.093,1.843,2.112,�k��,8.8,��
2015/02/16,10:30,1.950,3.592,3.845,3.485,3.710,1.092,1.842,2.110,�k��,9.4,��
2015/02/16,10:40,1.950,3.587,3.843,3.482,3.710,1.092,1.845,2.112,�k��,9.3,��
2015/02/16,10:50,1.950,3.595,3.850,-,3.712,1.092,1.845,2.110,�k��,9.3,��
2015/02/16,11:00,1.952,3.593,3.852,-,3.712,1.095,1.843,2.112,�k��,10.5,��
2015/02/16,11:10,1.950,3.597,3.850,-,3.718,1.093,1.845,2.112,�k��,12.3,��
2015/02/16,11:20,1.952,3.598,3.850,-,3.713,1.093,1.845,2.117,�k��,9.7,��
2015/02/16,11:30,1.952,3.600,3.847,-,3.718,1.092,1.845,2.113,�k��,11.0,��
2015/02/16,11:40,1.955,3.598,3.852,-,3.718,1.095,1.845,2.112,�k��,9.9,��
2015/02/16,11:50,1.950,3.595,3.853,-,3.718,1.097,1.845,2.113,�k��,11.6,��
2015/02/16,12:00,1.953,3.580,3.852,-,3.723,1.093,1.847,2.115,�k��,10.8,��
2015/02/16,12:10,1.955,3.572,3.855,-,3.722,1.098,1.847,2.117,�k��,11.9,��
2015/02/16,12:20,1.955,3.572,3.853,-,3.717,1.098,1.847,2.115,�k��,12.6,��
2015/02/16,12:30,1.958,3.572,3.852,-,3.718,1.097,1.845,2.113,�k��,12.7,��
2015/02/16,12:40,1.957,3.563,3.853,-,3.723,1.097,1.847,2.112,�k��,12.1,��
2015/02/16,12:50,1.955,3.550,3.855,-,3.722,1.100,1.845,2.113,�k��,11.6,��
2015/02/16,13:00,1.955,3.577,3.857,-,3.725,1.095,1.847,2.115,���k��,10.4,��
2015/02/16,13:10,1.953,3.590,3.862,-,3.722,1.098,1.845,2.113,�k��,9.1,��
2015/02/16,13:20,1.953,3.588,3.862,3.488,3.720,1.098,1.848,2.115,���k��,11.5,��
2015/02/16,13:30,1.955,3.587,3.863,3.492,3.722,1.100,1.845,2.113,���k��,11.9,��
2015/02/16,13:40,1.958,3.587,3.862,3.495,3.722,1.102,1.848,2.115,�k��,12.4,��
2015/02/16,13:50,1.958,3.588,3.863,3.493,3.727,1.102,1.848,2.113,�k��,11.0,��
2015/02/16,14:00,1.955,3.592,3.867,3.497,3.727,1.102,1.852,2.113,�k��,8.0,��
2015/02/16,14:10,1.955,3.593,3.867,3.495,3.725,1.107,1.848,2.113,�k��,9.1,��
2015/02/16,14:20,1.957,3.593,3.865,3.493,3.730,1.112,1.850,2.117,�k��,8.8,��
2015/02/16,14:30,1.957,3.595,3.862,3.492,3.730,1.107,1.852,2.118,���k��,11.6,��
2015/02/16,14:40,1.962,3.597,3.863,3.493,3.727,1.112,1.847,2.117,���k��,9.1,��
2015/02/16,14:50,1.955,3.595,3.867,3.495,3.728,1.108,1.847,2.115,�k��,9.9,��
2015/02/16,15:00,1.953,3.592,3.867,3.492,3.727,1.112,1.845,2.117,�k��,9.1,��
2015/02/16,15:10,1.955,3.592,3.865,3.493,3.725,1.112,1.848,2.117,�k��,9.3,��
2015/02/16,15:20,1.955,3.595,3.865,3.498,3.730,1.112,1.848,2.115,�k��,8.8,��
2015/02/16,15:30,1.957,3.590,3.863,3.498,3.730,1.118,1.847,2.115,�k��,8.2,��
2015/02/16,15:40,1.957,3.590,3.860,3.497,3.723,1.118,1.848,2.117,�k��,8.2,��
2015/02/16,15:50,1.957,3.592,3.863,3.497,3.725,1.117,1.848,2.117,�k��,9.3,��
2015/02/16,16:00,1.957,3.592,3.863,3.500,3.725,1.120,1.848,2.117,�k��,8.2,��
2015/02/16,16:10,1.952,3.595,3.865,3.498,3.723,1.120,1.848,2.117,�k��,8.8,��
2015/02/16,16:20,1.955,3.588,3.862,3.497,3.723,1.123,1.848,2.115,�k��,9.7,��
2015/02/16,16:30,1.952,3.590,3.868,3.495,3.723,1.118,1.847,2.117,�k��,8.8,��
2015/02/16,16:40,1.955,3.588,3.867,3.498,3.722,1.120,1.845,2.113,�k��,8.5,��
2015/02/16,16:50,1.953,3.587,3.865,3.492,3.722,1.117,1.847,2.113,�k��,7.7,��
2015/02/16,17:00,1.955,3.592,3.862,3.490,3.725,1.117,1.850,2.113,�k��,8.9,��
2015/02/16,17:10,1.952,3.593,3.862,3.490,3.727,1.117,1.845,2.115,�k��,8.5,��
2015/02/16,17:20,1.952,3.590,3.863,3.490,3.728,1.115,1.847,2.115,�k��,6.0,��
2015/02/16,17:30,1.952,3.590,3.863,3.492,3.722,1.117,1.852,2.115,�k��,5.7,��
2015/02/16,17:40,1.953,3.592,3.860,3.488,3.725,1.115,1.845,2.117,�k��,5.8,��
2015/02/16,17:50,1.952,3.590,3.860,3.492,3.722,1.117,1.848,2.118,�k��,6.6,��
2015/02/16,18:00,1.952,3.588,3.858,3.488,3.723,1.120,1.847,2.117,�k��,8.8,��
2015/02/16,18:10,1.952,3.588,3.862,3.495,3.720,1.122,1.847,2.117,�k��,8.0,��
2015/02/16,18:20,1.952,3.590,3.863,3.497,3.723,1.120,1.845,2.115,�k��,7.8,��
2015/02/16,18:30,1.950,3.585,3.865,3.490,3.718,1.118,1.845,2.115,�k��,8.5,��
2015/02/16,18:40,1.955,3.588,3.863,3.497,3.718,1.118,1.845,2.113,�k��,7.9,��
2015/02/16,18:50,1.955,3.587,3.858,3.495,3.722,1.118,1.842,2.117,�k��,6.9,��
2015/02/16,19:00,1.953,3.585,3.860,3.493,3.720,1.120,1.845,2.115,�k��,6.8,��
2015/02/16,19:10,1.952,3.585,3.865,3.495,3.723,1.118,1.842,2.117,�k��,7.8,��
2015/02/16,19:20,1.950,3.587,3.858,3.493,3.722,1.118,1.842,2.115,�k��,5.5,��
2015/02/16,19:30,1.950,3.585,3.860,3.495,3.718,1.118,1.843,2.117,�k�k��,6.8,��
2015/02/16,19:40,1.952,3.585,3.862,3.492,3.717,1.122,1.843,2.117,�k�k��,5.7,��
2015/02/16,19:50,1.950,3.585,3.858,3.492,3.717,1.120,1.843,2.115,�k�k��,4.9,��
2015/02/16,20:00,1.950,3.580,3.857,3.492,3.715,1.122,1.843,2.112,�k�k��,5.4,��
2015/02/16,20:10,1.950,3.583,3.852,3.492,3.715,1.122,1.843,2.113,�k�k��,5.8,��
2015/02/16,20:20,1.948,3.582,3.852,3.493,3.720,1.120,1.845,2.115,�k��,7.4,��
2015/02/16,20:30,1.948,3.582,3.858,3.493,3.710,1.117,1.842,2.117,�k��,6.4,��
2015/02/16,20:40,1.950,3.585,3.860,3.492,3.717,1.122,1.845,2.113,�k��,6.8,��
2015/02/16,20:50,1.948,3.580,3.858,3.490,3.710,1.120,1.847,2.117,�k��,5.7,��
2015/02/16,21:00,1.948,3.582,3.855,3.490,3.710,1.120,1.843,2.113,�k��,4.7,��
2015/02/16,21:10,1.952,3.583,3.858,3.490,3.712,1.117,1.845,2.112,�k�k��,5.5,��
2015/02/16,21:20,1.948,3.583,3.853,3.488,3.713,1.118,1.843,2.113,�k�k��,6.1,��
2015/02/16,21:30,1.948,3.583,3.857,3.487,3.715,1.120,1.842,2.112,�k�k��,6.0,��
2015/02/16,21:40,1.948,3.582,3.857,3.485,3.712,1.117,1.838,2.112,�k�k��,7.4,��
2015/02/16,21:50,1.948,3.582,3.853,3.487,3.715,1.120,1.843,2.115,�k�k��,7.4,��
2015/02/16,22:00,1.950,3.582,3.853,3.487,3.710,1.118,1.842,2.113,�k�k��,9.3,��
2015/02/16,22:10,1.950,3.583,3.855,3.487,3.715,1.118,1.842,2.115,�k,8.2,��
2015/02/16,22:20,1.950,3.580,3.855,3.488,3.713,1.118,1.842,2.113,�k�k��,8.2,��
2015/02/16,22:30,1.950,3.578,3.853,3.488,3.715,1.120,1.843,2.110,�k�k��,7.5,��
2015/02/16,22:40,1.948,3.582,3.857,3.487,3.713,1.122,1.845,2.113,�k�k��,7.5,��
2015/02/16,22:50,1.947,3.578,3.857,3.487,3.710,1.117,1.842,2.112,�k�k��,6.8,��
2015/02/16,23:00,1.945,3.580,3.855,3.488,3.715,1.118,1.840,2.112,�k��,7.4,��
2015/02/16,23:10,1.945,3.582,3.852,3.487,3.712,1.120,1.845,2.113,�k��,7.4,��
2015/02/16,23:20,1.947,3.582,3.852,3.487,3.713,1.118,1.842,2.115,�k��,6.7,��
2015/02/16,23:30,1.945,3.577,3.850,3.490,3.710,1.120,1.842,2.110,�k��,7.4,��
2015/02/16,23:40,1.950,3.577,3.853,3.488,3.712,1.118,1.842,2.113,�k��,6.7,��
2015/02/16,23:50,1.950,3.578,3.852,3.485,3.707,1.118,1.840,2.112,�k��,6.5,��
